Portada
METAR-TAF:

METAR-TAF

Aeroports :

Marshalltown Municipal Airport

Marshalltown, Iowa, Estats Units d'Amèrica

latitud: 42-06-38N, longitud: 092-54-58W, altitud: 296 m

Observació

L'informe es va fer fa 25 minuts, a les 16:53 UTC
Vent 8 kt del Sud-Est amb ràfegues de 16 kt
Temperatura 15°C
Humitat 67%
Pressió 1026 hPa
Visibilitat: 16.1 km
Cel clar

METAR: KMIW 221653Z AUTO 14008G16KT 10SM CLR 15/09 A3030 RMK AO2 SLP262 T01500089

Hora: 12:18 (17:18 UTC)


TAF: manca

Observacions i pronòstics meteorològics de més de 4000 aeroports (METAR i TAF).

Les estacions disponibles són els punts grocs i vermells al mapa.

Posi el ratolí al punt desitjat per veure el nom de l'estació.

Feu clic per veure les observacions i els pronòstics meteorològics.

Per canviar el mapa: feu clic els botons verds amb una creu de color negre per apropar; al botó verd amb un guió per allunyar la imatge; o en les fletxes verdes per a mapes adjacents.


METAR-TAF: